Weather History for Silver Bay, MN

Change the Weather History Date:

Monday, May 20, 2013

  Actual Average Record
Temperature  
Mean Temperature 45 °F -  
Max Temperature 48 °F 59 °F 71 °F (1998)
Min Temperature 42 °F 34 °F 17 °F (2002)
Degree Days  
Heating Degree Days 20    
Moisture  
Dew Point 42 °F    
Average Humidity 88    
Maximum Humidity 93    
Minimum Humidity 87    
Precipitation  
Precipitation 0.31 in - - ()
Sea Level Pressure  
Sea Level Pressure 29.71 in    
Wind  
Wind Speed 24 mph (ENE)    
Max Wind Speed 32 mph    
Max Gust Speed 45 mph    
Visibility 6 miles    
Events Fog , Rain    
Averages and records for this station are not official NWS values.
T = Trace of Precipitation, MM = Missing Value Source: NWS Daily Summary

Daily Weather History Graph

Daily Weather History Graph

Search for Another Location

Airport:

Trip Planner

Search our weather history database for the weather conditions in past years. The results will help you decide how hot, cold, wet, or windy it might be!

Date:

Astronomy

May. 20, 2013 Rise Set
Actual Time 5:23 AM CDT 8:41 PM CDT
Civil Twilight 4:46 AM CDT 9:18 PM CDT
Nautical Twilight 3:57 AM CDT 10:07 PM CDT
Astronomical Twilight 2:56 AM CDT 11:10 PM CDT
Moon 3:31 PM CDT (5/20) 2:39 AM CDT (5/20)
Length of Visible Light 16h 32m
Length of Day
15h 18m
Waxing Gibbous, 75% of the Moon is Illuminated
May 20
Waxing Gibbous
May 24
Full
May 31
Last Quarter
Jun 8
New
Jun 16
First Quarter

Hourly Weather History & Observations

Time (CDT) Temp. Windchill Dew Point Humidity Pressure Visibility Wind Dir Wind Speed Gust Speed Precip Events Conditions
12:13 AM 48.2 °F - 46.4 °F 93% 29.75 in 7.0 mi ENE 27.6 mph 44.9 mph 0.01 in Rain Light Rain
12:33 AM 48.2 °F - 46.4 °F 93% 29.74 in 10.0 mi ENE 28.8 mph 43.7 mph 0.01 in   Overcast
12:53 AM 48.2 °F - 44.6 °F 87% 29.78 in 10.0 mi ENE 23.0 mph 40.3 mph N/A   Overcast
1:13 AM 48.2 °F - 44.6 °F 87% 29.79 in 5.0 mi East 24.2 mph 42.6 mph N/A   Overcast
1:33 AM 46.4 °F 38.7 °F 44.6 °F 93% 29.78 in 7.0 mi ENE 20.7 mph 38.0 mph 0.01 in Rain Rain
1:53 AM 48.2 °F - 44.6 °F 87% 29.77 in 4.0 mi ENE 26.5 mph 36.8 mph N/A Rain Heavy Rain
2:13 AM 48.2 °F - 44.6 °F 87% 29.76 in 7.0 mi ENE 23.0 mph 41.4 mph 0.01 in Rain Rain
2:33 AM 48.2 °F - 44.6 °F 87% 29.72 in 7.0 mi ENE 23.0 mph 42.6 mph 0.02 in Rain Heavy Rain
3:13 AM 46.4 °F 37.4 °F 44.6 °F 93% 29.70 in 7.0 mi ENE 28.8 mph 40.3 mph 0.01 in Rain Light Rain
3:33 AM 46.4 °F 36.9 °F 42.8 °F 87% 29.69 in 5.0 mi ENE 32.2 mph 42.6 mph 0.02 in Rain Rain
3:53 AM 46.4 °F 37.0 °F 42.8 °F 87% 29.68 in 5.0 mi ENE 31.1 mph 44.9 mph N/A Rain Rain
5:43 AM - - - N/A% 29.65 in - ENE 25.3 mph - N/A   Unknown
5:46 AM 44.6 °F 35.9 °F - N/A% 29.64 in - ENE 23.0 mph 38.0 mph N/A   Unknown
5:48 AM 44.6 °F 36.1 °F 42.8 °F 93% 29.64 in - ENE 21.9 mph 38.0 mph N/A   Unknown
6:14 AM 44.6 °F 34.9 °F 42.8 °F 93% 29.63 in - ENE 28.8 mph 43.7 mph N/A   Unknown
6:53 AM 44.6 °F 35.7 °F 42.8 °F 93% 29.64 in 10.0 mi ENE 24.2 mph 43.7 mph N/A   Overcast
7:13 AM 44.6 °F 35.3 °F 42.8 °F 93% 29.66 in 10.0 mi ENE 26.5 mph 39.1 mph 0.01 in   Overcast
7:33 AM 44.6 °F 34.4 °F 41.0 °F 87% 29.68 in 10.0 mi ENE 32.2 mph 42.6 mph 0.02 in   Overcast
7:53 AM 44.6 °F 35.1 °F 41.0 °F 87% 29.69 in 10.0 mi ENE 27.6 mph 38.0 mph 0.01 in   Overcast
8:13 AM 44.6 °F 35.1 °F 41.0 °F 87% 29.69 in 10.0 mi ENE 27.6 mph 38.0 mph 0.02 in   Overcast
8:33 AM 42.8 °F 33.5 °F 39.2 °F 87% 29.69 in 10.0 mi ENE 23.0 mph 40.3 mph 0.02 in   Overcast
8:53 AM 42.8 °F 33.1 °F 39.2 °F 87% 29.68 in 10.0 mi ENE 25.3 mph 38.0 mph N/A   Overcast
9:13 AM 42.8 °F 34.0 °F 39.2 °F 87% 29.69 in 7.0 mi ENE 20.7 mph 35.7 mph 0.01 in   Overcast
9:33 AM 42.8 °F 34.0 °F 39.2 °F 87% 29.68 in 10.0 mi ENE 20.7 mph 31.1 mph 0.02 in   Overcast
9:53 AM 42.8 °F 33.8 °F 39.2 °F 87% 29.68 in 10.0 mi ENE 21.9 mph 36.8 mph 0.01 in   Overcast
10:13 AM 42.8 °F 33.8 °F 39.2 °F 87% 29.68 in 10.0 mi ENE 21.9 mph 33.4 mph 0.02 in   Overcast
10:33 AM 42.8 °F 35.1 °F 39.2 °F 87% 29.68 in 7.0 mi ENE 16.1 mph 26.5 mph 0.02 in   Overcast
10:53 AM 42.8 °F 33.8 °F 39.2 °F 87% 29.69 in 5.0 mi ENE 21.9 mph 32.2 mph N/A Rain Light Rain
11:13 AM 42.8 °F 33.3 °F 39.2 °F 87% 29.69 in 3.0 mi ENE 24.2 mph 33.4 mph 0.01 in Rain Light Rain
11:33 AM 42.8 °F 34.3 °F 39.2 °F 87% 29.69 in 7.0 mi ENE 19.6 mph 34.5 mph 0.02 in   Overcast
11:53 AM 42.8 °F 35.1 °F 39.2 °F 87% 29.69 in 1.8 mi ENE 16.1 mph 29.9 mph N/A Rain Light Rain
12:13 PM 42.8 °F 34.8 °F 39.2 °F 87% 29.68 in 3.0 mi ENE 17.3 mph 27.6 mph 0.01 in   Light Drizzle
12:33 PM 42.8 °F 34.5 °F 39.2 °F 87% 29.69 in 5.0 mi ENE 18.4 mph 28.8 mph 0.02 in Rain Light Rain
12:53 PM 42.8 °F 33.8 °F 39.2 °F 87% 29.69 in 0.2 mi ENE 21.9 mph 32.2 mph N/A Rain Light Rain
1:13 PM 42.8 °F 34.8 °F 39.2 °F 87% 29.69 in 0.5 mi ENE 17.3 mph 32.2 mph 0.01 in   Overcast
1:33 PM 42.8 °F 34.5 °F 39.2 °F 87% 29.69 in 0.5 mi NE 18.4 mph 33.4 mph 0.02 in   Overcast
1:53 PM 42.8 °F 33.5 °F 39.2 °F 87% 29.69 in 0.2 mi ENE 23.0 mph 32.2 mph N/A   Light Drizzle
2:13 PM 42.8 °F 33.8 °F 41.0 °F 93% 29.69 in 0.2 mi ENE 21.9 mph 36.8 mph 0.01 in   Overcast
2:33 PM 44.6 °F 35.7 °F 41.0 °F 87% 29.69 in 0.2 mi ENE 24.2 mph 40.3 mph 0.02 in Fog Fog
2:53 PM 44.6 °F 35.7 °F 42.8 °F 93% 29.70 in 0.5 mi ENE 24.2 mph 35.7 mph N/A Fog Fog
3:13 PM 44.6 °F 36.6 °F 42.8 °F 93% 29.70 in 0.8 mi ENE 19.6 mph 33.4 mph 0.01 in   Overcast
3:33 PM 46.4 °F 38.5 °F 42.8 °F 87% 29.71 in 0.8 mi ENE 21.9 mph 39.1 mph 0.02 in   Overcast
3:53 PM 46.4 °F 37.9 °F 42.8 °F 87% 29.70 in 0.8 mi ENE 25.3 mph 39.1 mph N/A   Overcast
4:13 PM 46.4 °F 37.9 °F 42.8 °F 87% 29.70 in 0.8 mi ENE 25.3 mph 41.4 mph 0.01 in   Overcast
4:33 PM 46.4 °F 37.5 °F 42.8 °F 87% 29.70 in 1.2 mi ENE 27.6 mph 42.6 mph 0.01 in   Overcast
4:53 PM 46.4 °F 38.7 °F 42.8 °F 87% 29.70 in 1.5 mi ENE 20.7 mph 36.8 mph N/A Rain Heavy Rain
5:13 PM 46.4 °F 37.4 °F 42.8 °F 87% 29.69 in 1.5 mi ENE 28.8 mph 43.7 mph N/A Rain Rain
5:33 PM 46.4 °F 38.7 °F 42.8 °F 87% 29.70 in 1.5 mi ENE 20.7 mph 40.3 mph 0.01 in   Overcast
5:54 PM 46.4 °F 37.5 °F 42.8 °F 87% 29.70 in 1.2 mi ENE 27.6 mph 38.0 mph N/A Rain Heavy Rain
6:13 PM 46.4 °F 37.9 °F 42.8 °F 87% 29.69 in 2.5 mi ENE 25.3 mph 39.1 mph 0.01 in Rain Light Rain
6:34 PM 46.4 °F 38.5 °F 42.8 °F 87% 29.70 in 2.0 mi ENE 21.9 mph 39.1 mph 0.01 in Rain Heavy Rain
6:53 PM 46.4 °F 37.9 °F 42.8 °F 87% 29.69 in 2.0 mi ENE 25.3 mph 43.7 mph N/A Rain Rain
7:13 PM 46.4 °F 40.4 °F 42.8 °F 87% 29.74 in 4.0 mi ENE 13.8 mph 33.4 mph N/A Rain Light Rain
7:33 PM 46.4 °F 37.4 °F 42.8 °F 87% 29.73 in 5.0 mi ENE 28.8 mph 38.0 mph 0.01 in Rain Rain
7:53 PM 46.4 °F 38.3 °F 42.8 °F 87% 29.73 in 10.0 mi ENE 23.0 mph 34.5 mph N/A   Light Drizzle
8:13 PM 44.6 °F 35.9 °F 42.8 °F 93% 29.72 in 10.0 mi ENE 23.0 mph 34.5 mph 0.01 in   Overcast
8:33 PM 44.6 °F 36.4 °F 42.8 °F 93% 29.73 in 10.0 mi ENE 20.7 mph 38.0 mph 0.01 in   Overcast
9:13 PM 44.6 °F 37.2 °F 42.8 °F 93% 29.75 in 4.0 mi ENE 17.3 mph 32.2 mph N/A   Drizzle
9:33 PM 44.6 °F 36.6 °F 42.8 °F 93% 29.75 in 4.0 mi ENE 19.6 mph 32.2 mph 0.01 in Rain Rain
9:53 PM 44.6 °F 36.9 °F 41.0 °F 87% 29.75 in 7.0 mi ENE 18.4 mph 32.2 mph N/A Rain Rain
10:13 PM 44.6 °F 35.9 °F 41.0 °F 87% 29.75 in 10.0 mi ENE 23.0 mph 34.5 mph 0.01 in Rain Light Rain
10:33 PM 44.6 °F 36.6 °F 41.0 °F 87% 29.75 in 10.0 mi ENE 19.6 mph 29.9 mph 0.01 in Rain Light Rain
10:53 PM 44.6 °F 36.4 °F 41.0 °F 87% 29.73 in 10.0 mi ENE 20.7 mph 31.1 mph N/A   Overcast
11:13 PM 44.6 °F 36.9 °F 41.0 °F 87% 29.73 in 10.0 mi ENE 18.4 mph 35.7 mph N/A   Overcast
11:33 PM 44.6 °F 36.6 °F 41.0 °F 87% 29.73 in 10.0 mi ENE 19.6 mph 32.2 mph 0.01 in   Overcast
11:53 PM 44.6 °F 36.9 °F 41.0 °F 87% 29.74 in 10.0 mi ENE 18.4 mph 28.8 mph N/A   Overcast